NORTHEAST SUFFOLK  -  Winter Weather Advisory Winter Weather Advisory     Winter Weather Advisory Winter Weather Advisory        NORTHERN NASSAU  -  Winter Weather Advisory Winter Weather Advisory        NORTHWEST SUFFOLK  -  Winter Weather Advisory Winter Weather Advisory     Winter Weather Advisory Winter Weather Advisory        SOUTHEAST SUFFOLK  -  Winter Weather Advisory Winter Weather Advisory     Winter Weather Advisory Winter Weather Advisory        SOUTHERN NASSAU  -  Winter Weather Advisory Winter Weather Advisory        SOUTHWEST SUFFOLK  -  Winter Weather Advisory Winter Weather Advisory     Winter Weather Advisory Winter Weather Advisory      

Active alerts

Northern Nassau
  Details for Northern Nassau Winter Weather Advisory
Southern Nassau
  Details for Southern Nassau Winter Weather Advisory
Northwest Suffolk
  Details for Northwest Suffolk Winter Weather Advisory  +1 additional alert
Southwest Suffolk
  Details for Southwest Suffolk Winter Weather Advisory  +1 additional alert
Northeast Suffolk
  Details for Northeast Suffolk Winter Weather Advisory  +1 additional alert
Southeast Suffolk
  Details for Southeast Suffolk Winter Weather Advisory  +1 additional alert


WXM80 ListenWXM80 Stop

You find our weather info also at:

UK Metoffice

WeatherCloud

Weather Underground

Northeastern Weather Network

AWEKAS

Citizen Weather Observer Program (CWOP)

HAMweather, WeatherForYou, PWS Weather


Weather Underground History page Text

Daily Summary for April 24, 2017 Units:  Metric    English   Both
« Previous Day
Next Day »
Daily Weekly Monthly Yearly Custom
  High: Low: Average:
Temperature: 12.7 °C 4.8 °C 9.4 °C
Dew Point: 9.9 °C 3.7 °C 7.4 °C
Humidity: 97 % 73 % 87 %
Wind Speed: 11.6 km/h 0 km/h 2.3 km/h
Wind Gust: 20.4 km/h - -
Wind:- - East
Pressure: 1021.2 hPa 1018.5 hPa -
Precipitation: 0.25 mm    
Historical Graphs
 
 
Tabular Data for April 24, 2017
Time Temperature Dew Point Pressure Wind Wind Speed Wind Gust Humidity Rainfall Rate (Hourly)
00:03 8.3 °C 5.9 °C 1019.5 hPa Calm     85 % 0 mm
00:08 8.2 °C 5.7 °C 1019.5 hPa Calm     84 % 0 mm
00:13 8.2 °C 5.8 °C 1019.9 hPa Calm     85 % 0 mm
00:18 8.1 °C 5.9 °C 1019.5 hPa Calm     86 % 0 mm
00:23 8.1 °C 5.8 °C 1019.9 hPa Calm     86 % 0 mm
00:28 8 °C 5.8 °C 1019.5 hPa Calm     86 % 0 mm
00:31 7.9 °C 5.7 °C 1019.5 hPa Calm     86 % 0 mm
00:36 7.8 °C 5.6 °C 1019.5 hPa Calm     86 % 0 mm
00:41 7.8 °C 5.6 °C 1019.5 hPa Calm     86 % 0 mm
00:46 7.7 °C 5.5 °C 1019.5 hPa Calm     86 % 0 mm
00:51 7.7 °C 5.5 °C 1019.5 hPa Calm     86 % 0 mm
00:56 7.6 °C 5.4 °C 1019.5 hPa Calm     86 % 0 mm
01:01 7.6 °C 5.6 °C 1019.5 hPa Calm     87 % 0 mm
01:06 7.4 °C 5.4 °C 1019.5 hPa WSW 0.2 km/h 1.9 km/h 87 % 0 mm
01:11 7.4 °C 5.4 °C 1019.5 hPa Calm     87 % 0 mm
01:16 7.3 °C 5.3 °C 1019.5 hPa Calm     87 % 0 mm
01:21 7.3 °C 5.3 °C 1019.5 hPa Calm     87 % 0 mm
01:26 7.2 °C 5.2 °C 1019.5 hPa Calm     87 % 0 mm
01:31 7.1 °C 5.3 °C 1019.5 hPa Calm     88 % 0 mm
01:36 7.1 °C 5.2 °C 1019.5 hPa Calm     88 % 0 mm
01:41 6.9 °C 5.1 °C 1019.5 hPa Calm     88 % 0 mm
01:46 6.9 °C 5.2 °C 1019.2 hPa Calm     89 % 0 mm
01:51 6.8 °C 5.1 °C 1019.2 hPa Calm     89 % 0 mm
01:56 6.7 °C 5.1 °C 1019.2 hPa Calm     89 % 0 mm
02:01 6.7 °C 5 °C 1018.8 hPa Calm     89 % 0 mm
02:06 6.6 °C 4.9 °C 1019.2 hPa Calm     89 % 0 mm
02:11 6.5 °C 4.8 °C 1019.2 hPa Calm     89 % 0 mm
02:16 6.4 °C 4.8 °C 1018.8 hPa Calm     89 % 0 mm
02:21 6.3 °C 4.7 °C 1018.8 hPa Calm     89 % 0 mm
02:26 6.3 °C 4.6 °C 1018.8 hPa Calm     89 % 0 mm
02:31 6.2 °C 4.6 °C 1018.8 hPa Calm     89 % 0 mm
02:36 6.2 °C 4.7 °C 1018.8 hPa Calm     90 % 0 mm
02:42 6.1 °C 4.6 °C 1018.8 hPa Calm     90 % 0 mm
02:47 6.1 °C 4.6 °C 1018.8 hPa Calm     90 % 0 mm
02:52 6 °C 4.5 °C 1018.8 hPa Calm     90 % 0 mm
02:57 5.9 °C 4.4 °C 1018.5 hPa Calm     90 % 0 mm
03:02 5.9 °C 4.4 °C 1018.5 hPa Calm     90 % 0 mm
03:07 5.8 °C 4.3 °C 1018.5 hPa Calm     90 % 0 mm
03:12 5.7 °C 4.2 °C 1018.8 hPa Calm     90 % 0 mm
03:17 5.7 °C 4.2 °C 1018.8 hPa Calm     90 % 0 mm
03:22 5.6 °C 4.3 °C 1018.8 hPa Calm     91 % 0 mm
03:27 5.6 °C 4.2 °C 1018.8 hPa Calm     91 % 0 mm
03:32 5.5 °C 4.2 °C 1018.8 hPa Calm     91 % 0 mm
03:37 5.4 °C 4.1 °C 1018.8 hPa WSW 0.5 km/h 1.9 km/h 91 % 0 mm
03:42 5.3 °C 4 °C 1018.8 hPa Calm   1.9 km/h 91 % 0 mm
03:47 5.3 °C 3.9 °C 1018.8 hPa Calm   1.6 km/h 91 % 0 mm
03:52 5.3 °C 3.9 °C 1018.8 hPa Calm   1.6 km/h 91 % 0 mm
03:54 5.3 °C 3.9 °C 1018.8 hPa WSW 0.2 km/h 1.9 km/h 91 % 0 mm
03:59 5.2 °C 4.1 °C 1018.8 hPa WSW 0.2 km/h 1.9 km/h 92 % 0 mm
04:04 5.2 °C 4.1 °C 1018.8 hPa Calm     92 % 0 mm
04:09 5.2 °C 4.1 °C 1018.8 hPa Calm     92 % 0 mm
04:14 5.2 °C 4.1 °C 1018.8 hPa Calm     92 % 0 mm
04:19 5.2 °C 4.1 °C 1018.8 hPa Calm     92 % 0 mm
04:24 5.2 °C 4.1 °C 1018.8 hPa Calm     92 % 0 mm
04:29 5.2 °C 4 °C 1019.2 hPa Calm     92 % 0 mm
04:34 5.2 °C 4 °C 1019.2 hPa Calm     92 % 0 mm
04:39 5.1 °C 3.9 °C 1018.8 hPa Calm     92 % 0 mm
04:44 5.1 °C 3.9 °C 1018.8 hPa Calm     92 % 0 mm
04:49 5 °C 3.8 °C 1018.8 hPa Calm     92 % 0 mm
04:54 4.9 °C 3.8 °C 1018.8 hPa Calm   1.9 km/h 92 % 0 mm
04:59 4.9 °C 3.7 °C 1019.2 hPa Calm   1.6 km/h 92 % 0 mm
05:04 4.8 °C 3.7 °C 1019.2 hPa WSW 0.2 km/h 1.9 km/h 92 % 0 mm
05:09 4.9 °C 3.8 °C 1019.2 hPa WSW 0.3 km/h 1.6 km/h 93 % 0 mm
05:14 4.9 °C 3.8 °C 1019.2 hPa WSW 0.3 km/h 1.9 km/h 93 % 0 mm
05:19 4.9 °C 3.8 °C 1019.5 hPa Calm     93 % 0 mm
05:24 4.9 °C 4.1 °C 1019.5 hPa Calm   1.9 km/h 94 % 0 mm
05:29 5.1 °C 4.2 °C 1019.2 hPa WSW 1.4 km/h 3.2 km/h 94 % 0 mm
05:34 5.1 °C 4.2 °C 1019.5 hPa WSW 2.7 km/h 5.6 km/h 94 % 0 mm
05:39 5.1 °C 4.2 °C 1019.5 hPa WSW 0.2 km/h 1.9 km/h 94 % 0 mm
05:44 5.1 °C 4.2 °C 1019.5 hPa WSW 0.5 km/h 3.7 km/h 94 % 0 mm
05:49 5.2 °C 4.3 °C 1019.5 hPa Calm     94 % 0 mm
05:54 5.2 °C 4.5 °C 1019.5 hPa Calm     95 % 0 mm
05:59 5.2 °C 4.5 °C 1019.5 hPa Calm     95 % 0 mm
06:04 5.3 °C 4.6 °C 1019.5 hPa Calm     95 % 0 mm
06:09 5.3 °C 4.6 °C 1019.5 hPa Calm     95 % 0 mm
06:14 5.2 °C 4.5 °C 1019.9 hPa Calm     95 % 0 mm
06:19 5.2 °C 4.5 °C 1019.9 hPa Calm     95 % 0 mm
06:24 5.3 °C 4.6 °C 1019.9 hPa Calm     95 % 0 mm
06:29 5.3 °C 4.6 °C 1019.9 hPa Calm     95 % 0 mm
06:34 5.3 °C 4.6 °C 1019.9 hPa Calm     95 % 0 mm
06:39 5.4 °C 4.7 °C 1019.9 hPa Calm     95 % 0 mm
06:44 5.6 °C 4.8 °C 1019.9 hPa Calm     95 % 0 mm
06:49 5.7 °C 5 °C 1019.9 hPa Calm     95 % 0 mm
06:54 5.9 °C 5.2 °C 1019.9 hPa Calm     95 % 0 mm
06:59 6.2 °C 5.6 °C 1020.2 hPa WSW 0.5 km/h 1.9 km/h 96 % 0 mm
07:04 6.4 °C 5.8 °C 1020.2 hPa Calm     96 % 0 mm
07:09 6.7 °C 6.1 °C 1020.2 hPa Calm     96 % 0 mm
07:15 7.1 °C 6.4 °C 1020.2 hPa Calm     96 % 0 mm
07:20 7.8 °C 7.3 °C 1020.2 hPa Calm     97 % 0 mm
07:25 8.2 °C 7.7 °C 1020.5 hPa SE 0.8 km/h 3.7 km/h 97 % 0 mm
07:30 8.4 °C 8 °C 1020.5 hPa SE 0.8 km/h 5.6 km/h 97 % 0 mm
07:35 8.7 °C 8.3 °C 1020.5 hPa SE 0.6 km/h 9.3 km/h 97 % 0 mm
07:40 8.8 °C 8.4 °C 1020.2 hPa SSE 3.1 km/h 5.6 km/h 97 % 0 mm
07:45 8.9 °C 8.3 °C 1020.5 hPa SE 5.8 km/h 9.3 km/h 96 % 0 mm
07:50 9 °C 8.4 °C 1020.5 hPa SSW 2.3 km/h 5.6 km/h 96 % 0 mm
07:55 9 °C 8.2 °C 1020.9 hPa SW 1 km/h 5.6 km/h 95 % 0 mm
08:00 9.1 °C 8.4 °C 1021.2 hPa SW 0.2 km/h 1.9 km/h 96 % 0 mm
08:05 9.2 °C 8.4 °C 1021.2 hPa SSE 0.3 km/h 5.6 km/h 95 % 0 mm
08:10 9.2 °C 8.4 °C 1021.2 hPa SSE 0.3 km/h 1.6 km/h 95 % 0 mm
08:15 9.3 °C 8.5 °C 1021.2 hPa Calm   1.9 km/h 95 % 0 mm
08:20 9.3 °C 8.6 °C 1021.2 hPa Calm   1.9 km/h 95 % 0 mm
08:25 9.6 °C 8.8 °C 1021.2 hPa SW 1.8 km/h 3.7 km/h 95 % 0 mm
08:30 9.8 °C 9.1 °C 1021.2 hPa SW 0.3 km/h 1.6 km/h 95 % 0 mm
08:35 10 °C 9.2 °C 1021.2 hPa Calm     95 % 0 mm
08:40 10.2 °C 9.4 °C 1020.9 hPa SE 2.6 km/h 5.6 km/h 95 % 0 mm
08:45 10.3 °C 9.1 °C 1020.9 hPa SSE 0.3 km/h 1.9 km/h 92 % 0 mm
08:50 10.6 °C 9.2 °C 1021.2 hPa Calm   1.9 km/h 91 % 0 mm
08:55 10.9 °C 9.6 °C 1021.2 hPa Calm   3.7 km/h 91 % 0 mm
09:00 11.3 °C 9.7 °C 1021.2 hPa SSE 1.3 km/h 3.7 km/h 90 % 0 mm
09:05 11.7 °C 9.9 °C 1020.9 hPa NE 4 km/h 5.6 km/h 89 % 0 mm
09:10 11.9 °C 9.8 °C 1021.2 hPa NE 2.4 km/h 5.6 km/h 87 % 0 mm
09:15 11.9 °C 9.7 °C 1020.9 hPa NNE 3.7 km/h 5.6 km/h 86 % 0 mm
09:21 12.1 °C 9.8 °C 1020.9 hPa ENE 1.1 km/h 3.7 km/h 86 % 0 mm
09:26 12.2 °C 9.7 °C 1021.2 hPa North 0.6 km/h 5.6 km/h 85 % 0 mm
09:31 12.1 °C 9.5 °C 1021.2 hPa NNE 2.9 km/h 7.4 km/h 84 % 0 mm
09:36 12.2 °C 9.7 °C 1020.9 hPa NNE 0.6 km/h 3.7 km/h 85 % 0 mm
09:41 12.2 °C 9.6 °C 1021.2 hPa NNE 2.9 km/h 5.6 km/h 84 % 0 mm
09:46 12.2 °C 9.6 °C 1021.2 hPa NNE 1.1 km/h 5.6 km/h 84 % 0 mm
09:51 12.4 °C 9.9 °C 1021.2 hPa NNE 6 km/h 7.4 km/h 85 % 0 mm
09:56 12.6 °C 9.9 °C 1021.2 hPa NNE 4.2 km/h 5.6 km/h 84 % 0 mm
10:01 12.6 °C 9.6 °C 1021.2 hPa NE 2.4 km/h 5.6 km/h 82 % 0 mm
10:06 12.6 °C 9.6 °C 1020.9 hPa ENE 3.5 km/h 5.6 km/h 82 % 0 mm
10:11 12.4 °C 9.6 °C 1021.2 hPa NNE 5.1 km/h 7.4 km/h 83 % 0 mm
10:16 12.4 °C 9.4 °C 1021.2 hPa ENE 3.9 km/h 5.6 km/h 82 % 0 mm
10:21 12.2 °C 9.2 °C 1021.2 hPa NE 3.4 km/h 5.6 km/h 82 % 0 mm
10:26 12.1 °C 9.3 °C 1021.2 hPa ENE 3.2 km/h 3.7 km/h 83 % 0 mm
10:31 11.8 °C 9.1 °C 1021.2 hPa ENE 1.8 km/h 5.6 km/h 83 % 0 mm
10:36 11.8 °C 9.2 °C 1021.2 hPa ENE 3.5 km/h 5.6 km/h 84 % 0 mm
10:41 11.8 °C 9.2 °C 1021.2 hPa ENE 2.4 km/h 5.6 km/h 84 % 0 mm
10:46 11.7 °C 9.1 °C 1021.2 hPa NE 2.3 km/h 3.7 km/h 84 % 0 mm
10:51 11.7 °C 9.1 °C 1021.2 hPa NE 2.9 km/h 5.6 km/h 84 % 0 mm
10:56 11.7 °C 9.1 °C 1020.9 hPa ENE 6.8 km/h 11.1 km/h 84 % 0 mm
11:01 11.5 °C 9.1 °C 1021.2 hPa NE 4.3 km/h 5.6 km/h 85 % 0 mm
11:06 11.5 °C 9.1 °C 1021.2 hPa ENE 4.8 km/h 6.4 km/h 85 % 0 mm
11:12 11.5 °C 9.2 °C 1021.2 hPa NNE 2.7 km/h 5.6 km/h 86 % 0 mm
11:17 11.4 °C 9 °C 1020.9 hPa ENE 4.2 km/h 7.4 km/h 85 % 0 mm
11:22 11.4 °C 9.2 °C 1021.2 hPa ENE 6.8 km/h 7.4 km/h 86 % 0 mm
11:27 11.3 °C 9 °C 1021.2 hPa NE 5.1 km/h 7.4 km/h 86 % 0 mm
11:32 11.3 °C 9 °C 1021.2 hPa ENE 4.5 km/h 8 km/h 86 % 0 mm
11:37 11.2 °C 8.9 °C 1021.2 hPa ENE 3.7 km/h 5.6 km/h 86 % 0 mm
11:42 11.2 °C 8.9 °C 1021.2 hPa ENE 2.4 km/h 5.6 km/h 86 % 0 mm
11:47 11.2 °C 8.9 °C 1021.2 hPa ENE 2.3 km/h 4.8 km/h 86 % 0 mm
11:52 11.2 °C 8.7 °C 1021.2 hPa ENE 6.3 km/h 11.1 km/h 85 % 0 mm
11:57 11.1 °C 8.7 °C 1021.2 hPa ENE 5.6 km/h 8 km/h 85 % 0 mm
12:02 11.1 °C 8.6 °C 1021.2 hPa ENE 4.2 km/h 5.6 km/h 85 % 0 mm
12:07 11 °C 8.6 °C 1020.9 hPa ENE 4.2 km/h 11.1 km/h 85 % 0 mm
12:12 10.9 °C 8.3 °C 1020.9 hPa ENE 5.3 km/h 7.4 km/h 84 % 0 mm
12:17 10.9 °C 8.5 °C 1020.9 hPa ENE 3.2 km/h 8 km/h 85 % 0 mm
12:22 10.9 °C 8.5 °C 1020.9 hPa ENE 1.6 km/h 8 km/h 85 % 0 mm
12:27 11.1 °C 8.7 °C 1020.9 hPa ENE 2.9 km/h 5.6 km/h 85 % 0 mm
12:32 11.3 °C 8.5 °C 1020.9 hPa ENE 3.2 km/h 8 km/h 83 % 0 mm
12:37 11.4 °C 8.1 °C 1020.9 hPa ENE 3.2 km/h 8 km/h 80 % 0 mm
12:42 11.7 °C 7.8 °C 1020.9 hPa ENE 4.8 km/h 8 km/h 77 % 0 mm
12:47 11.8 °C 7.8 °C 1020.9 hPa ENE 3.2 km/h 4.8 km/h 76 % 0 mm
12:52 12.1 °C 7.4 °C 1020.5 hPa ENE 3.2 km/h 8 km/h 73 % 0 mm
12:57 12.2 °C 7.4 °C 1020.2 hPa NE 8 km/h 11.1 km/h 73 % 0 mm
13:02 12.2 °C 7.4 °C 1020.2 hPa ENE 7.1 km/h 11.1 km/h 73 % 0 mm
13:07 12.2 °C 7.9 °C 1020.2 hPa ENE 5.5 km/h 11.1 km/h 75 % 0 mm
13:12 12.3 °C 8.8 °C 1020.2 hPa NNE 3.9 km/h 5.6 km/h 79 % 0 mm
13:17 12.6 °C 9.2 °C 1020.2 hPa NNE 7.4 km/h 13 km/h 80 % 0 mm
13:22 12.6 °C 9.4 °C 1020.2 hPa North 4.3 km/h 6.4 km/h 81 % 0 mm
13:27 12.7 °C 9.5 °C 1020.2 hPa NE 3.4 km/h 5.6 km/h 81 % 0 mm
13:32 12.7 °C 9.7 °C 1020.2 hPa ENE 2.9 km/h 7.4 km/h 82 % 0 mm
13:37 12.4 °C 9.1 °C 1020.5 hPa ENE 3.2 km/h 5.6 km/h 80 % 0 mm
13:42 12.3 °C 8.7 °C 1020.5 hPa ENE 1.6 km/h 3.7 km/h 79 % 0 mm
13:47 12.3 °C 8.7 °C 1020.2 hPa North 3.2 km/h 6.4 km/h 79 % 0 mm
13:48 12.3 °C 8.7 °C 1020.2 hPa NNE 5.3 km/h 8 km/h 79 % 0 mm
13:53 12.3 °C 8.7 °C 1020.2 hPa ENE 5.5 km/h 8 km/h 79 % 0 mm
13:58 12.3 °C 9.2 °C 1020.2 hPa North 2.6 km/h 7.4 km/h 81 % 0 mm
14:03 12.4 °C 9.4 °C 1020.5 hPa NNE 2.4 km/h 5.6 km/h 82 % 0 mm
14:08 12.4 °C 9.2 °C 1020.2 hPa ENE 2.4 km/h 7.4 km/h 81 % 0 mm
14:13 12.2 °C 8.8 °C 1020.2 hPa NE 5.3 km/h 7.4 km/h 80 % 0 mm
14:18 12.1 °C 8.7 °C 1020.2 hPa ENE 7.6 km/h 11.1 km/h 80 % 0 mm
14:23 11.9 °C 8.7 °C 1020.2 hPa ENE 6 km/h 11.1 km/h 81 % 0 mm
14:28 11.7 °C 8.4 °C 1020.2 hPa ENE 1.9 km/h 5.6 km/h 80 % 0 mm
14:33 11.7 °C 8.3 °C 1020.2 hPa NE 3.5 km/h 5.6 km/h 80 % 0 mm
14:38 11.7 °C 7.6 °C 1020.2 hPa East 3.1 km/h 7.4 km/h 76 % 0 mm
14:43 11.6 °C 7.7 °C 1020.2 hPa ENE 3.4 km/h 5.6 km/h 77 % 0 mm
14:48 11.6 °C 7.3 °C 1020.2 hPa ENE 2.6 km/h 5.6 km/h 75 % 0 mm
14:53 11.6 °C 7.4 °C 1020.2 hPa ENE 1.9 km/h 3.7 km/h 76 % 0 mm
14:58 11.6 °C 7.3 °C 1020.2 hPa East 3.7 km/h 5.6 km/h 75 % 0 mm
15:03 11.6 °C 7.5 °C 1020.2 hPa East 2.3 km/h 5.6 km/h 76 % 0 mm
15:08 11.7 °C 7.4 °C 1020.2 hPa East 1.4 km/h 4.8 km/h 75 % 0 mm
15:13 11.8 °C 7.5 °C 1020.2 hPa East 3.2 km/h 5.6 km/h 75 % 0 mm
15:18 11.8 °C 7.6 °C 1020.2 hPa East 2.1 km/h 3.7 km/h 75 % 0 mm
15:23 11.9 °C 7.4 °C 1019.9 hPa ENE 2.4 km/h 5.6 km/h 74 % 0 mm
15:28 11.9 °C 7.4 °C 1019.9 hPa ENE 3.5 km/h 5.6 km/h 74 % 0 mm
15:40 11.9 °C 7.7 °C 1019.9 hPa ENE 4.8 km/h 8 km/h 75 % 0 mm
15:45 11.9 °C 7.8 °C 1019.9 hPa ENE 3.2 km/h 8 km/h 76 % 0 mm
15:50 11.8 °C 7.9 °C 1019.9 hPa ENE 4.8 km/h 8 km/h 77 % 0 mm
15:55 11.8 °C 7.9 °C 1019.9 hPa ENE 1.6 km/h 8 km/h 77 % 0 mm
16:05 11.8 °C 8.4 °C 1019.9 hPa ENE 1.6 km/h 4.8 km/h 80 % 0 mm
16:10 11.8 °C 8.5 °C 1019.5 hPa ENE 1.6 km/h 4.8 km/h 80 % 0 mm
16:15 11.8 °C 8.5 °C 1019.5 hPa ENE 3.2 km/h 4.8 km/h 80 % 0 mm
16:20 11.9 °C 8.6 °C 1019.5 hPa Calm   4.8 km/h 80 % 0 mm
16:25 11.9 °C 8.6 °C 1019.5 hPa NNE 4.8 km/h 9.7 km/h 80 % 0 mm
16:30 11.9 °C 8.6 °C 1019.9 hPa NNE 3.2 km/h 8 km/h 80 % 0 mm
16:35 11.9 °C 8.3 °C 1019.9 hPa NNE 4.8 km/h 11.3 km/h 79 % 0 mm
16:40 11.9 °C 8.6 °C 1019.9 hPa NNE 4.8 km/h 9.7 km/h 80 % 0 mm
16:45 11.8 °C 8.5 °C 1019.9 hPa NNE 3.2 km/h 8 km/h 80 % 0 mm
16:50 11.8 °C 8.4 °C 1019.9 hPa North 3.2 km/h 6.4 km/h 80 % 0 mm
16:55 11.7 °C 8.6 °C 1019.9 hPa Calm   4.8 km/h 81 % 0 mm
17:05 11.7 °C 8.5 °C 1019.9 hPa Calm   1.6 km/h 81 % 0 mm
17:10 11.6 °C 8.4 °C 1020.2 hPa North 1.6 km/h 3.2 km/h 81 % 0 mm
17:16 11.5 °C 8.3 °C 1019.9 hPa ENE 4.8 km/h 5.6 km/h 81 % 0 mm
17:21 11.5 °C 8.6 °C 1019.5 hPa ENE 1.8 km/h 3.7 km/h 82 % 0 mm
17:26 11.5 °C 8.6 °C 1019.9 hPa ENE 1.3 km/h 3.7 km/h 82 % 0 mm
17:31 11.4 °C 8.5 °C 1019.5 hPa ENE 5 km/h 7.4 km/h 82 % 0 mm
17:36 11.4 °C 8.4 °C 1019.5 hPa NE 5.3 km/h 8 km/h 82 % 0 mm
17:42 11.3 °C 8.4 °C 1019.9 hPa ENE 3.7 km/h 7.4 km/h 82 % 0 mm
17:47 11.2 °C 8.4 °C 1019.9 hPa ENE 3.2 km/h 5.6 km/h 83 % 0 mm
17:51 11.2 °C 8.6 °C 1019.5 hPa ENE 3.4 km/h 4.8 km/h 84 % 0 mm
17:56 11.1 °C 8.5 °C 1019.5 hPa East 4.5 km/h 5.6 km/h 84 % 0 mm
18:02 11.1 °C 8.6 °C 1019.9 hPa ENE 3.4 km/h 5.6 km/h 85 % 0 mm
18:07 10.9 °C 8.5 °C 1019.9 hPa East 4.5 km/h 7.4 km/h 85 % 0 mm
18:12 10.9 °C 8.6 °C 1019.9 hPa East 1.4 km/h 3.7 km/h 86 % 0 mm
18:17 10.8 °C 8.6 °C 1019.5 hPa ENE 2.7 km/h 3.7 km/h 86 % 0 mm
18:22 10.8 °C 8.3 °C 1019.5 hPa ENE 1.3 km/h 4.8 km/h 85 % 0 mm
18:27 10.8 °C 8.3 °C 1019.9 hPa ENE 1.3 km/h 3.7 km/h 85 % 0 mm
18:32 10.7 °C 8.3 °C 1019.9 hPa ENE 1.3 km/h 3.7 km/h 85 % 0 mm
18:37 10.7 °C 8.4 °C 1019.9 hPa Calm     86 % 0 mm
18:42 10.7 °C 8.6 °C 1019.9 hPa ENE 1.6 km/h 5.6 km/h 87 % 0 mm
18:47 10.6 °C 8.6 °C 1019.9 hPa ENE 1.1 km/h 1.9 km/h 87 % 0 mm
18:52 10.6 °C 8.7 °C 1019.9 hPa ENE 0.8 km/h 1.9 km/h 88 % 0 mm
18:57 10.6 °C 8.7 °C 1019.9 hPa Calm     88 % 0 mm
19:02 10.6 °C 8.8 °C 1019.9 hPa Calm     89 % 0 mm
19:08 10.5 °C 8.8 °C 1020.2 hPa Calm     89 % 0 mm
19:13 10.5 °C 8.8 °C 1020.2 hPa ENE 0.3 km/h 1.9 km/h 89 % 0 mm
19:18 10.5 °C 8.8 °C 1020.2 hPa NE 2.4 km/h 5.6 km/h 89 % 0 mm
19:23 10.4 °C 8.7 °C 1020.2 hPa NE 2.3 km/h 5.6 km/h 89 % 0 mm
19:28 10.4 °C 8.7 °C 1019.9 hPa Calm   1.9 km/h 89 % 0 mm
19:33 10.3 °C 8.8 °C 1019.9 hPa NE 0.5 km/h 1.9 km/h 90 % 0 mm
19:38 10.3 °C 8.7 °C 1019.9 hPa NE 0.3 km/h 3.7 km/h 90 % 0.25 mm
19:43 10.3 °C 8.7 °C 1019.9 hPa NE 1.4 km/h 5.6 km/h 90 % 0.25 mm
19:48 10.2 °C 8.7 °C 1019.9 hPa Calm   1.9 km/h 90 % 0.25 mm
19:53 10.2 °C 8.8 °C 1019.5 hPa Calm     91 % 0.25 mm
19:58 10.2 °C 8.8 °C 1019.5 hPa Calm     91 % 0.25 mm
20:03 10.2 °C 8.8 °C 1019.5 hPa NE 0.2 km/h 3.7 km/h 91 % 0.25 mm
20:08 10.2 °C 8.8 °C 1019.5 hPa Calm     91 % 0.25 mm
20:13 10.1 °C 8.7 °C 1019.5 hPa Calm     91 % 0.25 mm
20:18 10.1 °C 8.7 °C 1019.9 hPa NE 0.2 km/h 1.9 km/h 91 % 0.25 mm
20:23 10.1 °C 8.7 °C 1019.5 hPa Calm     91 % 0.25 mm
20:28 10.1 °C 8.7 °C 1019.5 hPa Calm     91 % 0.25 mm
20:33 10.1 °C 8.6 °C 1019.5 hPa Calm     90 % 0.25 mm
20:38 10.1 °C 8.6 °C 1019.5 hPa NE 2.3 km/h 3.7 km/h 90 % 0 mm
20:43 10.1 °C 8.6 °C 1019.5 hPa NE 0.2 km/h 1.9 km/h 90 % 0 mm
20:48 10.1 °C 8.6 °C 1019.9 hPa NE 2.7 km/h 4.8 km/h 90 % 0 mm
20:53 10.1 °C 8.1 °C 1019.9 hPa ENE 3.9 km/h 5.6 km/h 87 % 0 mm
20:58 10.1 °C 7.9 °C 1019.9 hPa East 5.1 km/h 8 km/h 86 % 0 mm
21:03 10.2 °C 7.9 °C 1019.9 hPa ENE 4.2 km/h 5.6 km/h 86 % 0 mm
21:09 10.2 °C 7.8 °C 1019.5 hPa ENE 5.5 km/h 7.4 km/h 85 % 0 mm
21:14 10.2 °C 7.9 °C 1019.5 hPa ENE 5.1 km/h 7.4 km/h 86 % 0 mm
21:16 10.2 °C 7.9 °C 1019.5 hPa ENE 6.4 km/h 9.7 km/h 86 % 0 mm
21:21 10.1 °C 8.1 °C 1019.5 hPa ENE 4.3 km/h 5.6 km/h 87 % 0 mm
21:26 10.1 °C 8.2 °C 1019.9 hPa ENE 4.3 km/h 6.4 km/h 88 % 0 mm
21:31 10 °C 8.1 °C 1019.9 hPa ENE 3.7 km/h 5.6 km/h 88 % 0 mm
21:37 9.9 °C 8.2 °C 1019.9 hPa ENE 11.6 km/h 20.4 km/h 89 % 0 mm
21:42 9.8 °C 8.3 °C 1019.9 hPa ENE 10.3 km/h 18.5 km/h 90 % 0 mm
21:47 9.8 °C 8.2 °C 1019.9 hPa ENE 6.6 km/h 9.3 km/h 90 % 0 mm
21:52 9.7 °C 8.3 °C 1019.9 hPa East 6.8 km/h 11.1 km/h 91 % 0 mm
21:57 9.7 °C 8.3 °C 1019.9 hPa ENE 5.5 km/h 7.4 km/h 91 % 0 mm
22:02 9.6 °C 8.2 °C 1019.9 hPa East 7.1 km/h 11.1 km/h 91 % 0 mm
22:07 9.6 °C 8.2 °C 1019.9 hPa ENE 6.4 km/h 11.1 km/h 91 % 0 mm
22:12 9.5 °C 8.1 °C 1019.9 hPa East 8 km/h 13 km/h 91 % 0 mm
22:17 9.5 °C 8.3 °C 1019.9 hPa ENE 6.8 km/h 9.3 km/h 92 % 0 mm
22:22 9.4 °C 8.2 °C 1019.9 hPa East 5.8 km/h 9.7 km/h 92 % 0 mm
22:27 9.4 °C 8.2 °C 1019.9 hPa ENE 5.6 km/h 11.1 km/h 92 % 0 mm
22:32 9.4 °C 8.2 °C 1019.9 hPa ENE 6 km/h 9.3 km/h 92 % 0 mm
22:37 9.4 °C 8.2 °C 1019.9 hPa ENE 6.9 km/h 11.1 km/h 92 % 0 mm
22:42 9.3 °C 8.1 °C 1019.9 hPa East 7.9 km/h 11.1 km/h 92 % 0 mm
22:47 9.3 °C 8.1 °C 1019.9 hPa ENE 5.6 km/h 7.4 km/h 92 % 0 mm
22:52 9.3 °C 8.1 °C 1019.9 hPa ENE 5.1 km/h 5.6 km/h 92 % 0 mm
22:57 9.3 °C 8.3 °C 1019.9 hPa East 6.3 km/h 9.7 km/h 93 % 0 mm
23:02 9.3 °C 8.2 °C 1019.9 hPa East 6.1 km/h 7.4 km/h 93 % 0 mm
23:07 9.3 °C 8.2 °C 1019.9 hPa East 6.1 km/h 11.1 km/h 93 % 0 mm
23:12 9.3 °C 8.2 °C 1019.9 hPa East 5.8 km/h 9.7 km/h 93 % 0 mm
23:18 9.3 °C 8.2 °C 1019.9 hPa ENE 5.8 km/h 7.4 km/h 93 % 0 mm
23:23 9.2 °C 8.2 °C 1019.5 hPa East 5.3 km/h 8 km/h 93 % 0 mm
23:28 9.2 °C 8.2 °C 1019.5 hPa East 5.8 km/h 9.3 km/h 93 % 0 mm
23:33 9.2 °C 8.2 °C 1019.5 hPa ENE 7.6 km/h 11.1 km/h 93 % 0 mm
23:38 9.2 °C 8.3 °C 1019.5 hPa East 6.8 km/h 9.3 km/h 94 % 0 mm
23:43 9.2 °C 8.3 °C 1019.5 hPa ENE 7.4 km/h 9.3 km/h 94 % 0 mm
23:48 9.2 °C 8.3 °C 1019.5 hPa East 6.8 km/h 9.3 km/h 94 % 0 mm
23:53 9.2 °C 8.3 °C 1019.5 hPa East 6 km/h 9.3 km/h 94 % 0 mm
23:58 9.1 °C 8.2 °C 1019.5 hPa East 6.4 km/h 13 km/h 94 % 0 mm
Crab Meadow Weather
Compliments of Weather Underground - 3 mb

Script developed by  Jim McMurry - jmcmurry@mwt.net Adapted for the template by  Wim van der Kuil - Leuven-Template.eu

Weather Terms: Blowing Snow Advisory - Widespread blowing snow with winds 25 to 35 mph, occasionally reducing visibility to 1/4 mile or less.